Weather History for KBKE - April, 2013

Change the Weather History Date:

Tuesday, April 2, 2013

  Actual Average Record
Temperature  
Mean Temperature 48 °F 41 °F  
Max Temperature 65 °F 55 °F 78 °F (1992)
Min Temperature 30 °F 28 °F 17 °F (1953)
Degree Days  
Heating Degree Days 17 24  
Month to date heating degree days 34 48  
Since 1 July heating degree days 6255 6416  
Cooling Degree Days 0 0  
Month to date cooling degree days 0 0  
Year to date cooling degree days 0 0  
Moisture  
Dew Point 35 °F    
Average Humidity 65    
Maximum Humidity 96    
Minimum Humidity 34    
Precipitation  
Precipitation 0.00 in 0.03 in 0.33 in (1950)
Month to date precipitation 0.00 0.05  
Year to date precipitation 1.58 2.25  
Sea Level Pressure  
Sea Level Pressure 30.09 in    
Wind  
Wind Speed 7 mph (West)    
Max Wind Speed 16 mph    
Max Gust Speed 21 mph    
Visibility 10 miles    
Events      
T = Trace of Precipitation, MM = Missing Value Source: NWS Daily Summary

Daily Weather History Graph

Daily Weather History Graph

Search for Another Location

Airport or City:

Trip Planner

Search our weather history database for the weather conditions in past years. The results will help you decide how hot, cold, wet, or windy it might be!

Date:

Astronomy

Apr. 02, 2013 Rise Set
Actual Time 6:29 AM PDT 7:20 PM PDT
Civil Twilight 5:59 AM PDT 7:50 PM PDT
Nautical Twilight 5:24 AM PDT 8:25 PM PDT
Astronomical Twilight 4:47 AM PDT 9:02 PM PDT
Moon 1:39 AM PDT (4/2) 11:15 AM PDT (4/2)
Length of Visible Light 13h 50m
Length of Day
12h 51m
Waning Gibbous, 55% of the Moon is Illuminated
Apr 2
Waning Gibbous
Apr 2
Last Quarter
Apr 10
New
Apr 18
First Quarter
Apr 25
Full

Hourly Weather History & Observations

Time (PDT) Temp. Windchill Dew Point Humidity Pressure Visibility Wind Dir Wind Speed Gust Speed Precip Events Conditions
12:53 AM 45.0 °F 43.5 °F 37.0 °F 74% 30.04 in 10.0 mi SW 3.5 mph - N/A   Clear
1:53 AM 46.0 °F 41.4 °F 37.0 °F 71% 30.05 in 10.0 mi WNW 9.2 mph 18.4 mph N/A   Clear
2:53 AM 39.9 °F 35.1 °F 35.1 °F 83% 30.07 in 10.0 mi South 6.9 mph - N/A   Clear
3:53 AM 34.0 °F 29.8 °F 32.0 °F 92% 30.09 in 10.0 mi SSW 4.6 mph - N/A   Clear
4:53 AM 36.0 °F 32.1 °F 33.1 °F 89% 30.10 in 10.0 mi SSW 4.6 mph - N/A   Clear
5:53 AM 30.9 °F 25.2 °F 28.0 °F 89% 30.12 in 10.0 mi SSW 5.8 mph - N/A   Clear
6:53 AM 34.0 °F - 30.9 °F 89% 30.14 in 10.0 mi Calm Calm - N/A   Clear
7:53 AM 42.1 °F 39.2 °F 37.0 °F 82% 30.15 in 10.0 mi SSW 4.6 mph - N/A   Clear
8:53 AM 46.9 °F - 37.9 °F 71% 30.14 in 10.0 mi Calm Calm - N/A   Clear
9:53 AM 50.0 °F - 39.0 °F 66% 30.14 in 10.0 mi SSW 6.9 mph - N/A   Clear
10:53 AM 55.9 °F - 37.9 °F 51% 30.12 in 10.0 mi WNW 6.9 mph - N/A   Clear
11:53 AM 57.9 °F - 37.0 °F 46% 30.11 in 10.0 mi WNW 6.9 mph - N/A   Clear
12:53 PM 59.0 °F - 37.0 °F 44% 30.09 in 10.0 mi SW 5.8 mph - N/A   Clear
1:53 PM 63.0 °F - 37.9 °F 40% 30.06 in 10.0 mi NNW 8.1 mph - N/A   Clear
2:53 PM 64.0 °F - 36.0 °F 35% 30.06 in 10.0 mi North 9.2 mph - N/A   Clear
3:53 PM 64.0 °F - 35.1 °F 34% 30.06 in 10.0 mi NW 8.1 mph - N/A   Clear
4:53 PM 64.0 °F - 35.1 °F 34% 30.06 in 10.0 mi NW 9.2 mph 18.4 mph N/A   Clear
5:53 PM 63.0 °F - 34.0 °F 34% 30.07 in 10.0 mi NNW 16.1 mph - N/A   Clear
6:53 PM 57.0 °F - 36.0 °F 45% 30.08 in 10.0 mi NNW 9.2 mph - N/A   Clear
7:53 PM 52.0 °F - 35.1 °F 53% 30.08 in 10.0 mi North 6.9 mph - N/A   Clear
8:53 PM 51.1 °F - 36.0 °F 56% 30.10 in 10.0 mi Variable 5.8 mph - N/A   Clear
9:53 PM 46.9 °F - 36.0 °F 66% 30.10 in 10.0 mi West 8.1 mph - N/A   Clear
10:53 PM 44.1 °F 40.1 °F 36.0 °F 73% 30.10 in 10.0 mi WSW 6.9 mph - N/A   Clear
11:53 PM 41.0 °F 35.8 °F 35.1 °F 79% 30.12 in 10.0 mi SSW 8.1 mph - N/A   Clear